Regional Weather Roundup
Issued by NWS Midland/Odessa, TX

Home | Current Version | Previous Version | Text Only | Print | Product List | Glossary On
Versions: 1 2 3 4 5 6 7 8 9 10 11 12 13 14 15 16 17 18 19 20 21 22 23 24 25 26 27 28 29 30 31 32 33 34 35 36 37 38 39 40 41 42 43 44 45 46 47 48 49 50
000
ASUS44 KMAF 050810
RWRMAF
MIDLAND AREA WEATHER ROUNDUP
NATIONAL WEATHER SERVICE MIDLAND TX
300 AM CDT SUN JUL 05 2015

...IN SOUTHWEST TEXAS AND SOUTHEAST NEW MEXICO...

CITY           SKY/WX    TMP DP  RH WIND       PRES   REMARKS
ALPINE         PTCLDY    70  62  74 CALM      30.15S
ANDREWS        FAIR      71  63  74 S5        30.04R
ARTESIA        PTCLDY    73  61  64 S8        30.03S
BIG SPRING     PTCLDY    79  66  64 SE10      30.04R
CARLSBAD       PTCLDY    74  60  61 S7        30.00S
DRYDEN           N/A     78  68  71 SE7       29.96F
FORT STOCKTON  CLOUDY    76  64  66 S13       30.00F
GUAD PASS      MOCLDY    69  60  73 NE13      30.16F
HOBBS          PTCLDY    70  61  73 S6        30.06S
MARFA          PTCLDY   N/A N/A N/A CALM      30.14F
MIDLAND AIRPK  MOCLDY    77  65  67 S12       30.02F
MIDLAND INTL   MOCLDY    75  65  70 SE9       30.02S
ODESSA         MOCLDY    75  64  68 S13       30.03S
PECOS          CLEAR     76  63  63 E7        29.97F
PRESIDIO       FAIR      80  64  56 NE5       29.98S
SEMINOLE       MOCLDY    69  60  73 S5        30.05S
SNYDER         MOCLDY    72  64  77 S7        30.02S
WINK           CLEAR     76  63  64 SE9       29.98F
$$
...OTHER STATIONS IN TEXAS...

CITY           SKY/WX    TMP DP  RH WIND       PRES   REMARKS
ABILENE        PTCLDY    78  67  68 S10       30.00S
AMARILLO       CLEAR     72  61  68 S12       30.03S
AUSTIN         PTCLDY    76  76 100 S6        30.00S
BROWNSVILLE    MOCLDY    78  76  93 SE7       29.99F
CORPUS CHRISTI PTCLDY    77  73  87 SE8       29.99S
DALLAS FTW     MOCLDY    81  72  74 S14       29.96S
DEL RIO        CLEAR     79  69  71 SE14      29.93F
EL PASO        CLOUDY    75  64  68 N9        30.03S
HOUSTON INT    PTCLDY    80  77  90 S3        30.02S
LUBBOCK        MOCLDY    75  61  61 S14       30.02F
SAN ANGELO     CLOUDY    77  69  76 S8        29.99F
SAN ANTONIO    PTCLDY    78  70  76 S9        30.01R
WACO           MOCLDY    78  73  84 S12       29.99S
WICHITA FALLS  NOT AVBL
$$
...OTHER LOCATIONS IN NEW MEXICO...

CITY           SKY/WX    TMP DP  RH WIND       PRES   REMARKS
ALAMAGORDO     MOCLDY    75  57  53 S9        30.06F
ALBUQUERQUE    MOCLDY    69  58  67 S5        30.13F
CANNON AFB     CLEAR     68  62  79 S7        30.06F
CLOVIS         CLEAR     66  61  82 S7          N/A
HOLLOMAN AFB   MOCLDY    77  58  52 S5        30.04S
ROSWELL        CLEAR     71  59  65 S6        30.02S
RUIDOSO        MOCLDY    63  55  77 SW3       30.25F
SANTA FE       MOCLDY    65  54  67 S5        30.18F
TRUTH OR CONSE CLOUDY    70  61  73 W5        30.10S
TUCUMCARI      MOCLDY    71  58  63 SW8       30.02R
$$



USA.gov is the U.S. government's official web portal to all federal, state and local government web resources and services.